DW3212 Weather Reports


time (UTC)temp
F
wind
direction
speed
knots
gust
knots
rain 1hr
in
rain 24hr
in
rain mn
in
humidity
%
barometer
mb
20260504120103 49 0.0 0.0 0.00 0.00 0.00 53 1008.6
20260504100104 42 0.0 0.0 0.00 0.00 0.00 65 1008.2
20260504081605 41 0.0 0.0 0.00 0.00 0.00 75 1008.4
20260504044557 42 0.0 0.0 0.00 0.00 0.00 65 1008.7
20260504043059 42 0.0 0.0 0.00 0.00 0.00 63 1008.7
20260504041555 42 0.0 0.0 0.00 0.00 0.00 60 1008.6
20260504040131 42 0.0 0.0 0.00 0.00 0.00 59 1008.5
20260504034601 42 0.0 0.0 0.00 0.00 0.00 58 1008.5
20260504033056 41 0.0 0.0 0.00 0.00 0.00 56 1008.4
20260504031608 41 0.0 0.0 0.00 0.00 0.00 54 1008.2
20260504030056 41 0.0 0.0 0.00 0.00 0.00 52 1008.2
20260504024603 41 0.0 0.0 0.00 0.00 0.00 50 1008.2
20260504023056 41 0.0 0.0 0.00 0.00 0.00 49 1008.4
20260504021554 41 0.0 0.0 0.00 0.00 0.00 48 1008.6
20260504020109 41 0.0 0.0 0.00 0.00 0.00 48 1008.4
20260504014554 41 0.0 0.0 0.00 0.00 0.00 48 1008.2
20260504013056 41 0.0 0.0 0.00 0.00 0.00 47 1008.1
20260504011556 41 0.0 0.0 0.00 0.00 0.00 48 1007.9
20260504010056 42 0.0 0.0 0.00 0.00 0.00 46 1007.8
20260504004556 42 0.0 0.0 0.00 0.00 0.00 43 1007.6
20260504003056 42 0.0 0.0 0.00 0.00 0.00 42 1007.5
20260504001559 41 0.0 0.0 0.00 0.00 0.00 43 1007.1
20260504000059 42 0.0 0.0 0.00 0.00 0.00 43 1007.0
20260503234623 42 0.0 0.0 0.00 0.00 0.00 43 1006.8
20260503233053 42 0.0 0.0 0.00 0.00 0.00 44 1006.8
20260503231558 43 0.0 0.0 0.00 0.00 0.00 44 1006.6
20260503230056 43 0.0 0.0 0.00 0.00 0.00 43 1006.6
20260503224554 44 0.0 0.0 0.00 0.00 0.00 42 1006.6
20260503223054 44 0.0 0.0 0.00 0.00 0.00 43 1006.6
20260503221601 43 0.0 0.0 0.00 0.00 0.00 45 1006.5
20260503220059 44 0.0 0.0 0.00 0.00 0.00 44 1006.5
20260503214556 45 0.0 0.0 0.00 0.00 0.00 43 1006.6
20260503213057 46 0.0 0.0 0.00 0.00 0.00 45 1006.6
20260503211559 44 0.0 0.0 0.00 0.00 0.00 46 1006.5
20260503210054 44 0.0 0.0 0.00 0.00 0.00 46 1006.5
20260503204557 43 0.0 0.0 0.00 0.00 0.00 45 1006.4
20260503203058 43 0.0 0.0 0.00 0.00 0.00 47 1006.5
20260503201554 44 0.0 0.0 0.00 0.00 0.00 45 1006.6
20260503200057 45 0.0 0.0 0.00 0.00 0.00 44 1006.6
20260503194559 44 0.0 0.0 0.00 0.00 0.00 44 1006.6
20260503193056 44 0.0 0.0 0.00 0.00 0.00 44 1006.7
20260503191555 44 0.0 0.0 0.00 0.00 0.00 44 1007.0
20260503190056 44 0.0 0.0 0.00 0.00 0.00 47 1006.9
20260503184558 43 0.0 0.0 0.00 0.00 0.00 44 1006.8
20260503183058 43 0.0 0.0 0.00 0.00 0.00 48 1006.8
20260503181600 45 0.0 0.0 0.00 0.00 0.00 48 1006.8
20260503180107 45 0.0 0.0 0.00 0.00 0.00 51 1006.8
20260503174559 42 0.0 0.0 0.00 0.00 0.00 52 1006.8
20260503173107 43 0.0 0.0 0.00 0.00 0.00 49 1006.6
20260503171553 43 0.0 0.0 0.00 0.00 0.00 46 1006.6
20260503140107 39 0.0 0.0 0.00 0.00 0.00 64 1007.3